This is the latest recevied weather packets stored in our database for station/object GW4288. If no packets are shown the sender has not sent any weather packets the latest 1 day(s).
| Time | Temp. | Humidity | Pressure | Rain* | Wind** | Luminosity | Snow |
|---|---|---|---|---|---|---|---|
| 1778132686 | 15° C | 80% | 1010.7 hPa | 0 mm | - | 78 W/m² | - |
| 1778132564 | 15° C | 80% | 1010.7 hPa | 0 mm | - | 83 W/m² | - |
| 1778132453 | 15° C | 80% | 1010.7 hPa | 0 mm | - | 84 W/m² | - |
| 1778132324 | 15° C | 80% | 1010.7 hPa | 0 mm | - | 84 W/m² | - |
| 1778132206 | 15° C | 80% | 1010.6 hPa | 0 mm | - | 82 W/m² | - |
| 1778132084 | 15° C | 80% | 1010.6 hPa | 0 mm | - | 79 W/m² | - |
| 1778131964 | 15° C | 80% | 1010.5 hPa | 0 mm | - | 77 W/m² | - |
| 1778131854 | 15° C | 80% | 1010.7 hPa | 0 mm | - | 73 W/m² | - |
| 1778131726 | 15° C | 80% | 1010.5 hPa | 0 mm | - | 70 W/m² | - |
| 1778131604 | 15° C | 80% | 1010.7 hPa | 0 mm | - | 67 W/m² | - |
| 1778131484 | 15° C | 80% | 1010.5 hPa | 0 mm | - | 62 W/m² | - |
| 1778131366 | 15° C | 80% | 1010.4 hPa | 0 mm | - | 60 W/m² | - |
| 1778131253 | 15° C | 80% | 1010.5 hPa | 0 mm | - | 57 W/m² | - |
| 1778131124 | 15° C | 80% | 1010.3 hPa | 0 mm | - | 53 W/m² | - |
| 1778131005 | 15.56° C | 80% | 1010.4 hPa | 0 mm | - | 52 W/m² | - |
| 1778130885 | 15.56° C | 79% | 1010.3 hPa | 0 mm | - | 55 W/m² | - |
| 1778130801 | 15° C | 80% | 1010.1 hPa | 0 mm | - | 54 W/m² | - |
| 1778130785 | 15° C | 80% | 1010.3 hPa | 0 mm | - | 57 W/m² | - |
| 1778130527 | 15° C | 80% | 1010.1 hPa | 0 mm | - | 58 W/m² | - |
| 1778130407 | 15° C | 80% | 1010.1 hPa | 0 mm | - | 59 W/m² | - |
| 1778130289 | 15° C | 80% | 1009.9 hPa | 0 mm | - | 55 W/m² | - |
| 1778130168 | 15° C | 80% | 1010.1 hPa | 0 mm | - | 56 W/m² | - |
| 1778130071 | 15° C | 80% | 1010 hPa | 0 mm | - | 57 W/m² | - |
| 1778129927 | 15° C | 80% | 1010 hPa | 0 mm | - | 54 W/m² | - |
| 1778129808 | 15° C | 80% | 1010 hPa | 0 mm | - | 51 W/m² | - |
* Rain latest hour (hover to see other rain measurements)
** Current wind speed in m/s (hover to see current wind gust speed)